Вернуться в каталог

STARLINK-37543

АктивенСвязьSSO
NORAD 68911·PAYLOAD·🇺🇸 United States

Запущен Apr 30, 2026 с Vandenberg Space Force Base

Loading…

Ближайшие Пролёты (ближайшие 24 часа)

TLE

СвежийSource: CelesTrak SupGP

Эпоха: Sep 15, 2026, 04:22 UTC

1 68911C 26097S   26258.18243056 -.00058247  00000+0 -18079-2 0  2583
2 68911  97.2856  92.4121 0001754  94.0317  49.3222 15.33472868    14

Отслеживайте STARLINK-37543 в реальном времени с AllMySat

Download on the App Store